Location: Aldenham
(51.6667°N, 0.3500°W)
Time: 12:37:32
(UTC+00:00)

Altair - Pass Details

Date: 20 February 2026
Orbit: 1502 x 1682 km, 47.2° (Epoch: 17 March)

Event Time Altitude Azimuth Distance (km) Brightness Sun altitude
Rises 08:17:14 0° 277° (W) 4,672 9.5 9.3°
Reaches altitude 10° 08:20:17 10° 273° (W) 3,706 9.0 9.7°
Maximum altitude 08:29:25 60° 197° (SSW) 1,763 8.2 10.9°
Drops below altitude 10° 08:38:54 10° 121° (ESE) 3,836 12.8 12.1°
Sets 08:42:06 0° 118° (ESE) 4,844 12.1 12.5°
